When you browse on this site, cookies collect data to enhance your experience and personalize the content and advertising you see.
Visit our Privacy Policy to learn more. By continuing to use the site, you agree to this use of cookies and data.
  • In Österreich
  • Länderverzeichnis
  • Für 7 Tage
  • Wassertemperatur
  • Wetterkarte
  • News
  • Widgets
  • user-avatar
    Anmelden

    Stündliche Wetter Tezontepec

    Heute, 14 November, Donnerstag

    Zeit Temperatur Niederschläge Wind Luftdruck Luftfeuchtigkeit
    00:00 +13°C° 0 mm 2 m/S 577 mmHg 71%
    01:00 +12°C° 0 mm 2 m/S 576 mmHg 72%
    02:00 +12°C° 0 mm 1 m/S 576 mmHg 73%
    03:00 +12°C° 0 mm 1 m/S 576 mmHg 75%
    04:00 +11°C° 0 mm 1 m/S 576 mmHg 78%
    05:00 +11°C° 0 mm 1 m/S 576 mmHg 77%
    06:00 +13°C° 0 mm 1 m/S 577 mmHg 72%
    07:00 +14°C° 0 mm 1 m/S 578 mmHg 66%
    08:00 +15°C° 0 mm 1 m/S 579 mmHg 61%
    09:00 +18°C° 0 mm 1 m/S 579 mmHg 55%
    10:00 +19°C° 0 mm 1 m/S 580 mmHg 49%
    11:00 +19°C° 0 mm 2 m/S 580 mmHg 43%
    12:00 +20°C° 0 mm 2 m/S 580 mmHg 43%
    13:00 +20°C° 0 mm 2 m/S 579 mmHg 42%
    14:00 +20°C° 0 mm 2 m/S 579 mmHg 42%
    15:00 +19°C° 0.1 mm 3 m/S 579 mmHg 52%
    16:00 +18°C° 0.1 mm 3 m/S 578 mmHg 62%
    17:00 +15°C° 0.1 mm 4 m/S 578 mmHg 72%
    18:00 +14°C° 0.1 mm 3 m/S 578 mmHg 76%
    19:00 +14°C° 0.1 mm 3 m/S 579 mmHg 80%
    20:00 +13°C° 0.1 mm 3 m/S 579 mmHg 84%
    21:00 +12°C° 0 mm 3 m/S 579 mmHg 84%
    22:00 +12°C° 0 mm 3 m/S 579 mmHg 83%
    23:00 +12°C° 0 mm 3 m/S 579 mmHg 82%

    Morgen, 15 November, Freitag

    Zeit Temperatur Niederschläge Wind Luftdruck Luftfeuchtigkeit
    00:00 +11°C° 0 mm 3 m/S 578 mmHg 82%
    01:00 +12°C° 0 mm 2 m/S 578 mmHg 83%
    02:00 +12°C° 0 mm 2 m/S 578 mmHg 83%
    03:00 +12°C° 0 mm 2 m/S 578 mmHg 83%
    04:00 +12°C° 0 mm 2 m/S 579 mmHg 83%
    05:00 +12°C° 0 mm 2 m/S 579 mmHg 82%
    06:00 +13°C° 0 mm 2 m/S 579 mmHg 81%
    07:00 +13°C° 0 mm 2 m/S 580 mmHg 80%
    08:00 +13°C° 0 mm 2 m/S 580 mmHg 78%
    09:00 +14°C° 0 mm 2 m/S 580 mmHg 75%
    10:00 +15°C° 0 mm 2 m/S 581 mmHg 71%
    11:00 +15°C° 0 mm 2 m/S 581 mmHg 68%
    12:00 +16°C° 0 mm 2 m/S 580 mmHg 67%
    13:00 +16°C° 0 mm 2 m/S 580 mmHg 66%
    14:00 +16°C° 0 mm 2 m/S 579 mmHg 65%
    15:00 +14°C° 0 mm 3 m/S 579 mmHg 69%
    16:00 +13°C° 0 mm 3 m/S 579 mmHg 73%
    17:00 +12°C° 0 mm 3 m/S 578 mmHg 78%
    18:00 +12°C° 0 mm 3 m/S 578 mmHg 80%
    19:00 +12°C° 0 mm 2 m/S 579 mmHg 82%
    20:00 +12°C° 0 mm 2 m/S 579 mmHg 83%
    21:00 +12°C° 0 mm 2 m/S 579 mmHg 84%
    22:00 +11°C° 0 mm 1 m/S 578 mmHg 85%
    23:00 +11°C° 0 mm 1 m/S 578 mmHg 86%

    übermorgen, 16 November, Samstag

    Zeit Temperatur Niederschläge Wind Luftdruck Luftfeuchtigkeit
    00:00 +11°C° 0 mm 1 m/S 578 mmHg 86%
    01:00 +11°C° 0 mm 1 m/S 577 mmHg 86%
    02:00 +11°C° 0 mm 1 m/S 577 mmHg 86%
    03:00 +10°C° 0 mm 0 m/S 577 mmHg 87%
    04:00 +10°C° 0 mm 0 m/S 577 mmHg 87%
    05:00 +10°C° 0 mm 0 m/S 577 mmHg 87%
    06:00 +11°C° 0 mm 0 m/S 578 mmHg 83%
    07:00 +12°C° 0 mm 0 m/S 579 mmHg 80%
    08:00 +13°C° 0 mm 0 m/S 579 mmHg 76%
    09:00 +14°C° 0 mm 0 m/S 579 mmHg 70%
    10:00 +18°C° 0 mm 1 m/S 580 mmHg 64%
    11:00 +19°C° 0 mm 1 m/S 580 mmHg 58%
    12:00 +19°C° 0.1 mm 2 m/S 580 mmHg 57%
    13:00 +19°C° 0.1 mm 2 m/S 579 mmHg 55%
    14:00 +20°C° 0.1 mm 3 m/S 579 mmHg 54%
    15:00 +19°C° 0.2 mm 3 m/S 579 mmHg 60%
    16:00 +17°C° 0.2 mm 3 m/S 578 mmHg 66%
    17:00 +16°C° 0.2 mm 3 m/S 578 mmHg 72%
    18:00 +16°C° 0.1 mm 2 m/S 578 mmHg 74%
    19:00 +15°C° 0.1 mm 2 m/S 578 mmHg 77%
    20:00 +15°C° 0.1 mm 1 m/S 578 mmHg 79%
    21:00 +15°C° 0 mm 1 m/S 578 mmHg 80%
    22:00 +15°C° 0 mm 1 m/S 578 mmHg 80%
    23:00 +13°C° 0 mm 0 m/S 578 mmHg 80%

    17 November, Sonntag

    Zeit Temperatur Niederschläge Wind Luftdruck Luftfeuchtigkeit
    00:00 +13°C° 0 mm 0 m/S 577 mmHg 81%
    01:00 +13°C° 0 mm 0 m/S 577 mmHg 82%
    02:00 +13°C° 0 mm 0 m/S 576 mmHg 83%
    03:00 +12°C° 0 mm 0 m/S 576 mmHg 84%
    04:00 +12°C° 0 mm 0 m/S 576 mmHg 86%
    05:00 +12°C° 0 mm 0 m/S 576 mmHg 87%
    06:00 +13°C° 0 mm 0 m/S 577 mmHg 81%
    07:00 +15°C° 0 mm 1 m/S 578 mmHg 75%
    08:00 +16°C° 0 mm 1 m/S 578 mmHg 69%
    09:00 +17°C° 0 mm 2 m/S 578 mmHg 62%
    10:00 +19°C° 0 mm 2 m/S 579 mmHg 55%
    11:00 +20°C° 0 mm 3 m/S 579 mmHg 48%
    12:00 +21°C° 0 mm 3 m/S 578 mmHg 46%
    13:00 +21°C° 0 mm 4 m/S 578 mmHg 44%
    14:00 +21°C° 0 mm 4 m/S 578 mmHg 42%
    15:00 +20°C° 0.1 mm 4 m/S 577 mmHg 50%
    16:00 +19°C° 0.1 mm 4 m/S 577 mmHg 58%
    17:00 +17°C° 0.1 mm 3 m/S 577 mmHg 65%
    18:00 +16°C° 0 mm 3 m/S 577 mmHg 69%
    19:00 +16°C° 0 mm 2 m/S 577 mmHg 72%
    20:00 +15°C° 0 mm 2 m/S 577 mmHg 75%
    21:00 +15°C° 0 mm 2 m/S 577 mmHg 76%
    22:00 +14°C° 0 mm 1 m/S 576 mmHg 78%
    23:00 +14°C° 0 mm 1 m/S 576 mmHg 79%

    18 November, Montag

    Zeit Temperatur Niederschläge Wind Luftdruck Luftfeuchtigkeit
    00:00 +13°C° 0 mm 1 m/S 576 mmHg 79%
    01:00 +13°C° 0 mm 1 m/S 575 mmHg 79%
    02:00 +13°C° 0 mm 1 m/S 575 mmHg 79%
    03:00 +11°C° 0 mm 0 m/S 575 mmHg 80%
    04:00 +11°C° 0 mm 0 m/S 575 mmHg 81%
    05:00 +11°C° 0 mm 0 m/S 575 mmHg 82%
    06:00 +12°C° 0 mm 0 m/S 576 mmHg 76%
    07:00 +13°C° 0 mm 0 m/S 576 mmHg 70%
    08:00 +14°C° 0 mm 0 m/S 577 mmHg 64%
    09:00 +18°C° 0 mm 1 m/S 577 mmHg 59%
    10:00 +19°C° 0 mm 1 m/S 578 mmHg 55%
    11:00 +19°C° 0 mm 2 m/S 578 mmHg 51%
    12:00 +20°C° 0.1 mm 3 m/S 577 mmHg 50%
    13:00 +20°C° 0.1 mm 3 m/S 577 mmHg 49%
    14:00 +20°C° 0.1 mm 4 m/S 577 mmHg 47%
    15:00 +19°C° 0.1 mm 3 m/S 576 mmHg 52%
    16:00 +18°C° 0.1 mm 2 m/S 576 mmHg 57%
    17:00 +17°C° 0.1 mm 2 m/S 576 mmHg 62%
    18:00 +18°C° 0 mm 1 m/S 576 mmHg 64%
    19:00 +16°C° 0 mm 1 m/S 577 mmHg 66%
    20:00 +16°C° 0 mm 1 m/S 577 mmHg 68%
    21:00 +16°C° 0 mm 1 m/S 577 mmHg 70%
    22:00 +14°C° 0 mm 0 m/S 576 mmHg 73%
    23:00 +13°C° 0 mm 0 m/S 576 mmHg 75%

    19 November, Dienstag

    Zeit Temperatur Niederschläge Wind Luftdruck Luftfeuchtigkeit
    00:00 +13°C° 0 mm 0 m/S 576 mmHg 76%
    01:00 +12°C° 0 mm 0 m/S 575 mmHg 78%
    02:00 +13°C° 0 mm 1 m/S 575 mmHg 79%
    03:00 +12°C° 0 mm 1 m/S 575 mmHg 78%
    04:00 +12°C° 0 mm 1 m/S 575 mmHg 78%
    05:00 +12°C° 0 mm 1 m/S 575 mmHg 77%
    06:00 +13°C° 0 mm 1 m/S 576 mmHg 71%
    07:00 +14°C° 0 mm 1 m/S 577 mmHg 65%
    08:00 +15°C° 0 mm 1 m/S 578 mmHg 59%
    09:00 +16°C° 0 mm 2 m/S 578 mmHg 55%
    10:00 +18°C° 0 mm 2 m/S 579 mmHg 51%
    11:00 +19°C° 0 mm 3 m/S 579 mmHg 47%
    12:00 +19°C° 0 mm 3 m/S 578 mmHg 49%
    13:00 +19°C° 0 mm 4 m/S 578 mmHg 51%
    14:00 +17°C° 0 mm 5 m/S 577 mmHg 52%
    15:00 +17°C° 0 mm 4 m/S 577 mmHg 57%
    16:00 +15°C° 0 mm 4 m/S 577 mmHg 62%
    17:00 +14°C° 0 mm 3 m/S 577 mmHg 67%
    18:00 +13°C° 0 mm 3 m/S 577 mmHg 71%
    19:00 +13°C° 0 mm 2 m/S 577 mmHg 76%
    20:00 +12°C° 0 mm 2 m/S 577 mmHg 81%
    21:00 +12°C° 0 mm 1 m/S 576 mmHg 82%
    22:00 +12°C° 0 mm 1 m/S 576 mmHg 82%
    23:00 +11°C° 0 mm 1 m/S 576 mmHg 83%
    Mehr zeigen